FW2941 Bradenton FL US current weather conditions

sailwx.info

Wind from 324 at 0 knots gusting 5

Air temperature 16.1° C
Dewpoint 11.3° C

Last reported at 2019-Mar-22 05:08 UTC.
Time now 2019-Mar-22 05:58 UTC

Location: N 27°29' W 082°23'.
View on Google Maps.

See reports from other nearby stations

  
Tides and Currents Weather Stations Pressure Air Temp Water Temp Dewpoint Dewpoint Depression Visibility Wind Speed Wind Dir Waves Ship Positions
date/time (UTC)wind fromknots sea level pressurealtimeterstation pressurevisibilityair tempwater tempwave heightnotes
2019-Mar-22 05:08 324 0 gusting 5 16.1
2019-Mar-22 05:03 320 0 gusting 5 16.7
2019-Mar-22 04:58 179 1 gusting 6 16.7
2019-Mar-22 04:53 298 1 gusting 7 16.7
2019-Mar-22 04:48 338 2 gusting 7 16.7
2019-Mar-22 04:43 262 0 gusting 5 16.7
2019-Mar-22 04:38 289 1 gusting 5 16.7
2019-Mar-22 04:33 300 1 gusting 7 16.7
2019-Mar-22 04:28 281 2 gusting 7 17.2
2019-Mar-22 04:23 288 2 gusting 6 17.2
2019-Mar-22 04:18 294 2 gusting 9 17.2
2019-Mar-22 04:13 280 1 gusting 9 17.2
2019-Mar-22 04:08 283 2 gusting 6 17.2
2019-Mar-22 04:03 335 3 gusting 6 17.2
2019-Mar-22 03:58 295 2 gusting 6 16.7
2019-Mar-22 03:53 287 1 gusting 4 17.2
2019-Mar-22 03:48 284 2 gusting 6 17.2
2019-Mar-22 03:43 286 2 gusting 6 17.2
2019-Mar-22 03:38 274 1 gusting 5 17.2
2019-Mar-22 03:33 280 2 gusting 5 17.2
2019-Mar-22 03:28 269 2 gusting 5 17.2
2019-Mar-22 03:23 280 1 gusting 4 17.2
2019-Mar-22 03:18 314 1 gusting 4 17.2
2019-Mar-22 03:13 275 1 gusting 6 17.2
2019-Mar-22 03:08 279 2 gusting 6 17.2
2019-Mar-22 03:03 289 1 gusting 5 17.2
2019-Mar-22 02:58 289 1 gusting 6 17.8
2019-Mar-22 02:53 275 3 gusting 6 17.8
2019-Mar-22 02:48 293 2 gusting 6 17.8
2019-Mar-22 02:43 296 2 gusting 6 17.8
2019-Mar-22 02:38 307 1 gusting 8 18.3
2019-Mar-22 02:33 319 5 gusting 8 18.3
2019-Mar-22 02:28 288 3 gusting 12 18.3
2019-Mar-22 02:23 289 4 gusting 12 18.3
2019-Mar-22 02:18 320 4 gusting 9 18.3
2019-Mar-22 02:13 304 4 gusting 7 18.3
2019-Mar-22 02:08 288 2 gusting 7 18.3
2019-Mar-22 02:03 310 3 gusting 7 18.3
2019-Mar-22 01:58 257 3 gusting 7 18.3
2019-Mar-22 01:53 277 4 gusting 9 18.3
2019-Mar-22 01:48 290 4 gusting 9 18.3
2019-Mar-22 01:43 274 0 gusting 6 17.8
2019-Mar-22 01:38 274 2 gusting 6 18.3
2019-Mar-22 01:33 289 1 gusting 5 17.8
2019-Mar-22 01:28 253 1 gusting 4 17.8
2019-Mar-22 01:23 313 1 gusting 6 17.8
2019-Mar-22 01:18 308 3 gusting 6 17.8
2019-Mar-22 01:13 295 1 gusting 5 17.8
2019-Mar-22 01:08 281 1 gusting 5 17.8
2019-Mar-22 01:03 288 2 gusting 5 17.2
2019-Mar-22 00:58 287 0 gusting 2 17.2
2019-Mar-22 00:53 276 17.2
2019-Mar-22 00:48 271 17.2
2019-Mar-22 00:43 271 0 gusting 1 17.2
2019-Mar-22 00:38 275 0 gusting 2 17.2
2019-Mar-22 00:33 285 0 gusting 2 17.8
2019-Mar-22 00:28 284 1 gusting 3 17.8
2019-Mar-22 00:23 278 1 gusting 3 17.8
2019-Mar-22 00:18 305 0 gusting 3 17.8
2019-Mar-22 00:13 263 1 gusting 4 17.8
2019-Mar-22 00:08 295 1 gusting 4 17.8
2019-Mar-22 00:03 310 1 gusting 4 17.8
2019-Mar-21 23:58 296 1 gusting 5 18.3
2019-Mar-21 23:53 283 1 gusting 6 18.3
2019-Mar-21 23:48 284 2 gusting 6 18.3
2019-Mar-21 23:43 294 2 gusting 6 18.3
2019-Mar-21 23:38 276 1 gusting 6 18.3
2019-Mar-21 23:33 300 2 gusting 6 18.9
2019-Mar-21 23:28 302 3 gusting 6 18.9
2019-Mar-21 23:23 336 2 gusting 6 19.4
2019-Mar-21 23:18 280 3 gusting 6 19.4
2019-Mar-21 23:13 269 2 gusting 9 20.0
2019-Mar-21 23:08 301 4 gusting 9 20.0
2019-Mar-21 23:03 323 3 gusting 8 20.0
2019-Mar-21 22:58 199 4 gusting 9 20.0
2019-Mar-21 22:53 270 5 gusting 11 20.0
2019-Mar-21 22:48 260 4 gusting 11 20.6
2019-Mar-21 22:43 266 1 gusting 10 20.6
2019-Mar-21 22:38 307 4 gusting 10 20.6
2019-Mar-21 22:33 027 5 gusting 8 20.6
2019-Mar-21 22:28 298 3 gusting 11 20.6
2019-Mar-21 22:23 271 3 gusting 11 20.6
2019-Mar-21 22:18 306 3 gusting 10 21.1
2019-Mar-21 22:13 300 3 gusting 12 20.6
2019-Mar-21 22:08 236 6 gusting 12 21.1
2019-Mar-21 22:03 271 3 gusting 10 21.1
2019-Mar-21 21:58 316 4 gusting 10 21.1
2019-Mar-21 21:53 290 2 gusting 6 21.1
2019-Mar-21 21:48 277 3 gusting 9 21.1
2019-Mar-21 21:43 311 6 gusting 13 21.1
2019-Mar-21 21:38 269 6 gusting 13 21.1
2019-Mar-21 21:33 281 4 gusting 11 21.1
2019-Mar-21 21:28 285 5 gusting 9 21.7
2019-Mar-21 21:23 258 3 gusting 12 21.7
2019-Mar-21 21:18 347 1 gusting 13 21.1
2019-Mar-21 21:13 274 6 gusting 11 21.1
2019-Mar-21 21:08 312 3 gusting 14 21.1
2019-Mar-21 21:03 283 6 gusting 14 21.1
2019-Mar-21 20:58 301 5 gusting 12 21.7
2019-Mar-21 20:53 338 5 gusting 9 21.1
2019-Mar-21 20:48 300 5 gusting 9 21.7
2019-Mar-21 20:43 285 3 gusting 9 21.7
2019-Mar-21 20:38 298 5 gusting 9 21.7
2019-Mar-21 20:33 297 3 gusting 13 21.7
2019-Mar-21 20:28 058 4 gusting 13 21.7
2019-Mar-21 20:23 340 4 gusting 9 21.7
2019-Mar-21 20:18 290 3 gusting 7 21.7
2019-Mar-21 20:13 285 1 gusting 13 21.1
2019-Mar-21 20:08 280 6 gusting 13 21.1
2019-Mar-21 20:03 271 4 gusting 13 21.1
2019-Mar-21 19:58 269 5 gusting 10 21.1
2019-Mar-21 19:53 300 3 gusting 16 21.1
2019-Mar-21 19:38 276 5 gusting 13 21.1
2019-Mar-21 19:33 266 6 gusting 13 21.1
2019-Mar-21 19:28 268 6 gusting 12 21.1
2019-Mar-21 19:23 274 5 gusting 10 21.1
2019-Mar-21 19:18 295 4 gusting 10 21.7
2019-Mar-21 19:13 303 3 gusting 8 21.7
2019-Mar-21 19:08 323 5 gusting 9 21.7
2019-Mar-21 19:03 280 5 gusting 11 21.1
2019-Mar-21 18:58 290 4 gusting 8 21.1
2019-Mar-21 18:53 025 4 gusting 8 21.1
2019-Mar-21 18:48 292 3 gusting 9 21.1
2019-Mar-21 18:43 309 4 gusting 11 21.1
2019-Mar-21 18:38 255 5 gusting 10 21.1
2019-Mar-21 18:33 264 3 gusting 9 21.1
2019-Mar-21 18:28 269 6 gusting 10 21.1
2019-Mar-21 18:23 263 5 gusting 10 21.1
2019-Mar-21 18:18 280 5 gusting 9 21.1
2019-Mar-21 18:13 019 4 gusting 11 21.1
2019-Mar-21 18:08 323 5 gusting 12 21.1
2019-Mar-21 18:03 319 5 gusting 12 21.1
2019-Mar-21 17:58 269 3 gusting 10 21.1
2019-Mar-21 17:53 319 6 gusting 10 21.1
2019-Mar-21 17:48 314 6 gusting 12 21.1
2019-Mar-21 17:43 288 5 gusting 12 21.1
2019-Mar-21 17:38 290 6 gusting 10 21.1
2019-Mar-21 17:33 292 5 gusting 10 21.1
2019-Mar-21 17:28 232 4 gusting 11 21.1
2019-Mar-21 17:23 321 6 gusting 11 21.1
2019-Mar-21 17:18 305 5 gusting 10 21.1
2019-Mar-21 17:13 304 4 gusting 10 21.1
2019-Mar-21 17:08 293 5 gusting 9 21.7
2019-Mar-21 17:03 075 2 gusting 6 21.1
2019-Mar-21 16:58 299 2 gusting 8 21.1
2019-Mar-21 16:53 276 3 gusting 8 21.1
2019-Mar-21 16:48 290 4 gusting 13 21.1
2019-Mar-21 16:43 304 6 gusting 13 21.1
2019-Mar-21 16:38 283 3 gusting 11 21.1
2019-Mar-21 16:33 276 2 gusting 8 21.1
2019-Mar-21 16:28 316 6 gusting 8 21.1
2019-Mar-21 16:23 068 1 gusting 6 21.1
2019-Mar-21 16:18 250 1 gusting 6 20.6
2019-Mar-21 16:13 056 3 gusting 6 20.6
2019-Mar-21 16:08 336 4 gusting 6 20.6
2019-Mar-21 16:03 155 2 gusting 6 20.6
2019-Mar-21 15:58 271 2 gusting 6 20.6
2019-Mar-21 15:53 321 1 gusting 7 20.6
2019-Mar-21 15:48 305 2 gusting 7 20.6
2019-Mar-21 15:43 087 1 gusting 6 20.6
2019-Mar-21 15:38 340 1 gusting 6 20.6
2019-Mar-21 15:33 328 2 gusting 6 20.6
2019-Mar-21 15:28 062 2 gusting 6 20.6
2019-Mar-21 15:23 091 2 gusting 6 20.6
2019-Mar-21 15:18 312 2 gusting 7 20.6
2019-Mar-21 15:13 284 4 gusting 7 20.0
2019-Mar-21 15:08 304 1 gusting 6 20.0
2019-Mar-21 15:03 193 4 gusting 8 20.0
2019-Mar-21 14:58 084 2 gusting 8 20.0
2019-Mar-21 14:53 049 0 gusting 6 20.0
2019-Mar-21 14:48 302 2 gusting 6 20.0
2019-Mar-21 14:43 310 2 gusting 7 19.4
2019-Mar-21 14:38 019 1 gusting 5 19.4
2019-Mar-21 14:33 287 1 gusting 6 19.4
2019-Mar-21 14:28 297 2 gusting 6 19.4
2019-Mar-21 14:23 008 1 gusting 6 19.4
2019-Mar-21 14:18 084 1 gusting 7 18.9
2019-Mar-21 14:13 265 3 gusting 9 18.9
2019-Mar-21 14:08 327 3 gusting 9 18.9
2019-Mar-21 14:03 305 3 gusting 7 18.9
2019-Mar-21 13:58 071 3 gusting 7 18.9
2019-Mar-21 13:53 308 2 gusting 6 18.9
2019-Mar-21 13:48 053 0 gusting 6 18.3
2019-Mar-21 13:43 295 2 gusting 6 18.3
2019-Mar-21 13:38 295 1 gusting 3 17.8
2019-Mar-21 13:33 120 0 gusting 3 17.8
2019-Mar-21 13:28 017 0 gusting 3 17.2
2019-Mar-21 13:23 078 1 gusting 5 17.2
2019-Mar-21 13:18 297 1 gusting 5 17.2
2019-Mar-21 13:13 058 17.2
2019-Mar-21 13:08 312 0 gusting 3 16.7
2019-Mar-21 13:03 229 16.1
2019-Mar-21 12:58 315 0 gusting 2 15.6
2019-Mar-21 12:53 277 0 gusting 2 15.6
2019-Mar-21 12:48 013 0 gusting 2 15.6
2019-Mar-21 12:43 020 0 gusting 1 15.0
2019-Mar-21 12:38 342 15.0
2019-Mar-21 12:33 016 14.4
2019-Mar-21 12:28 319 14.4
2019-Mar-21 12:23 302 14.4
2019-Mar-21 12:18 286 13.9
2019-Mar-21 12:13 321 13.9
2019-Mar-21 12:08 003 13.3
2019-Mar-21 12:03 041 13.3
2019-Mar-21 11:58 041 13.3
2019-Mar-21 11:53 041 13.3
2019-Mar-21 11:48 041 13.3
2019-Mar-21 11:43 041 13.3
2019-Mar-21 11:38 041 13.3
2019-Mar-21 11:33 041 13.3
2019-Mar-21 11:28 041 12.8
2019-Mar-21 11:23 041 12.8
2019-Mar-21 11:18 041 13.3
2019-Mar-21 11:13 041 13.3
2019-Mar-21 11:08 041 12.8
2019-Mar-21 11:03 041 13.3
2019-Mar-21 10:58 041 13.3
2019-Mar-21 10:53 041 13.3
2019-Mar-21 10:48 041 13.3
2019-Mar-21 10:43 041 13.3
2019-Mar-21 10:38 041 13.3
2019-Mar-21 10:33 041 13.3
2019-Mar-21 10:28 041 13.3
2019-Mar-21 10:23 041 13.9
2019-Mar-21 10:18 041 13.9
2019-Mar-21 10:13 041 14.4
2019-Mar-21 10:08 041 14.4
2019-Mar-21 10:03 041 14.4
2019-Mar-21 09:58 041 14.4
2019-Mar-21 09:53 041 14.4
2019-Mar-21 09:48 061 15.0
2019-Mar-21 09:43 061 15.0
2019-Mar-21 09:38 069 15.0
2019-Mar-21 09:33 302 15.0
2019-Mar-21 09:28 062 15.0
2019-Mar-21 09:23 041 14.4
2019-Mar-21 09:18 081 0 gusting 2 14.4
2019-Mar-21 09:13 077 0 gusting 1 14.4
2019-Mar-21 09:08 052 14.4
2019-Mar-21 09:03 337 14.4
2019-Mar-21 08:58 082 13.9
2019-Mar-21 08:53 075 13.9
2019-Mar-21 08:48 075 13.9
2019-Mar-21 08:43 075 13.9
2019-Mar-21 08:38 075 13.9
2019-Mar-21 08:33 075 13.9
2019-Mar-21 08:28 075 13.9
2019-Mar-21 08:23 075 13.9
2019-Mar-21 08:18 075 13.9
2019-Mar-21 08:13 075 13.9
2019-Mar-21 08:08 075 13.9
2019-Mar-21 08:03 075 13.9
2019-Mar-21 07:58 075 13.9
2019-Mar-21 07:53 075 14.4
2019-Mar-21 07:48 075 14.4
2019-Mar-21 07:43 075 14.4
2019-Mar-21 07:38 075 14.4
2019-Mar-21 07:33 075 14.4
2019-Mar-21 07:28 075 14.4
2019-Mar-21 07:23 075 14.4
2019-Mar-21 07:18 075 14.4
2019-Mar-21 07:13 075 14.4
2019-Mar-21 07:08 075 15.0
2019-Mar-21 07:03 075 15.0
2019-Mar-21 06:58 075 15.0
2019-Mar-21 06:53 075 15.6
2019-Mar-21 06:48 075 15.0
2019-Mar-21 06:43 075 15.0
2019-Mar-21 06:38 091 0 gusting 1 15.0
2019-Mar-21 06:33 118 14.4
2019-Mar-21 06:28 060 14.4
2019-Mar-21 06:23 044 14.4
2019-Mar-21 06:18 044 14.4
2019-Mar-21 06:13 044 14.4
2019-Mar-21 06:08 044 14.4
2019-Mar-21 06:03 044 15.0
2019-Mar-21 05:58 044 15.0
2019-Mar-21 05:53 044 14.4
2019-Mar-21 05:48 044 14.4
2019-Mar-21 05:43 045 15.0
2019-Mar-21 05:38 045 15.0
2019-Mar-21 05:33 045 15.6
2019-Mar-21 05:28 045 15.6
2019-Mar-21 05:23 045 15.6
2019-Mar-21 05:18 045 15.6
2019-Mar-21 05:13 045 15.6
2019-Mar-21 05:08 045 15.6
2019-Mar-21 05:03 045 15.6
2019-Mar-21 04:58 045 16.1
2019-Mar-21 04:53 045 16.1
2019-Mar-21 04:48 045 16.1
2019-Mar-21 04:43 045 16.7
2019-Mar-21 04:38 045 16.7
2019-Mar-21 04:33 045 16.7
2019-Mar-21 04:28 045 17.2
2019-Mar-21 04:18 045 17.8
2019-Mar-21 04:13 045 17.8
2019-Mar-21 04:08 045 17.8
2019-Mar-21 04:03 045 17.8
2019-Mar-21 03:58 056 17.8
2019-Mar-21 03:53 056 17.8
2019-Mar-21 03:48 056 17.8
2019-Mar-21 03:43 056 17.8
2019-Mar-21 03:38 056 18.3
2019-Mar-21 03:33 056 18.3
2019-Mar-21 03:28 056 18.3
2019-Mar-21 03:23 056 18.3
2019-Mar-21 03:18 056 18.3
2019-Mar-21 03:13 056 18.9
2019-Mar-21 03:08 056 18.9
2019-Mar-21 03:03 308 18.9
2019-Mar-21 02:58 308 18.9
2019-Mar-21 02:53 308 18.9
2019-Mar-21 02:48 307 18.9
2019-Mar-21 02:43 308 18.9
2019-Mar-21 02:38 049 18.9
2019-Mar-21 02:33 050 18.9
2019-Mar-21 02:28 053 18.9
2019-Mar-21 02:23 105 18.9
2019-Mar-21 02:18 100 18.9
2019-Mar-21 02:13 076 18.9
2019-Mar-21 02:08 068 18.9
2019-Mar-21 02:03 068 18.9
2019-Mar-21 01:58 117 18.9
2019-Mar-21 01:53 117 18.9
2019-Mar-21 01:48 117 18.9
2019-Mar-21 01:43 117 18.9
2019-Mar-21 01:38 128 18.9
2019-Mar-21 01:33 123 19.4
2019-Mar-21 01:28 120 19.4
2019-Mar-21 01:23 120 19.4
2019-Mar-21 01:18 122 19.4
2019-Mar-21 01:13 127 19.4
2019-Mar-21 01:08 113 19.4
2019-Mar-21 01:03 113 19.4
2019-Mar-21 00:58 079 19.4
2019-Mar-21 00:53 098 19.4
2019-Mar-21 00:48 094 19.4
2019-Mar-21 00:43 091 19.4
2019-Mar-21 00:38 065 19.4
2019-Mar-21 00:33 066 19.4
2019-Mar-21 00:28 063 19.4
2019-Mar-21 00:23 068 19.4
2019-Mar-21 00:18 068 19.4
2019-Mar-21 00:13 068 19.4
2019-Mar-21 00:08 068 20.0
2019-Mar-21 00:03 068 20.0
2019-Mar-20 23:58 068 20.0
2019-Mar-20 23:53 068 20.0
2019-Mar-20 23:48 068 20.6
2019-Mar-20 23:43 068 0 gusting 1 20.6
2019-Mar-20 23:38 087 20.6
2019-Mar-20 23:33 097 21.1
2019-Mar-20 23:28 095 0 gusting 2 21.1
2019-Mar-20 23:23 137 21.1
2019-Mar-20 23:18 122 0 gusting 4 21.7
2019-Mar-20 23:13 079 0 gusting 6 21.7
2019-Mar-20 23:08 091 21.7
2019-Mar-20 23:03 091 21.7
2019-Mar-20 22:58 081 1 gusting 3 21.7
2019-Mar-20 22:53 115 1 gusting 4 21.7
2019-Mar-20 22:48 077 1 gusting 5 21.7
2019-Mar-20 22:43 127 0 gusting 2 21.7
2019-Mar-20 22:38 083 0 gusting 5 22.2
2019-Mar-20 22:33 120 2 gusting 5 22.2
2019-Mar-20 22:28 124 2 gusting 6 22.2
2019-Mar-20 22:23 094 2 gusting 6 22.2
2019-Mar-20 22:18 113 1 gusting 5 22.2
2019-Mar-20 22:13 316 1 gusting 7 22.2
2019-Mar-20 22:08 063 2 gusting 7 22.2
2019-Mar-20 22:03 084 1 gusting 4 22.8
2019-Mar-20 21:58 138 0 gusting 5 22.8
2019-Mar-20 21:53 082 2 gusting 5 22.8
2019-Mar-20 21:48 105 1 gusting 5 22.8
2019-Mar-20 21:43 126 1 gusting 6 22.8
2019-Mar-20 21:38 065 0 gusting 6 22.8
2019-Mar-20 21:33 133 1 gusting 6 22.8
2019-Mar-20 21:28 092 0 gusting 3 22.8
2019-Mar-20 21:23 115 1 gusting 3 22.2
2019-Mar-20 21:18 097 2 gusting 4 22.8
2019-Mar-20 21:13 120 1 gusting 4 22.8
2019-Mar-20 21:08 328 0 gusting 5 22.8
2019-Mar-20 21:03 167 0 gusting 5 22.2
2019-Mar-20 20:58 088 3 gusting 6 22.2
2019-Mar-20 20:53 070 2 gusting 6 22.8
2019-Mar-20 20:48 061 2 gusting 6 22.8
2019-Mar-20 20:43 143 0 gusting 10 22.8
2019-Mar-20 20:38 068 2 gusting 10 22.8
2019-Mar-20 20:33 069 2 gusting 6 22.8
2019-Mar-20 20:28 110 2 gusting 7 22.2
2019-Mar-20 20:23 127 3 gusting 7 22.8
2019-Mar-20 20:18 027 2 gusting 8 22.8
2019-Mar-20 20:13 064 3 gusting 8 22.8
2019-Mar-20 20:08 072 2 gusting 6 22.8
2019-Mar-20 20:03 090 2 gusting 8 22.8
2019-Mar-20 19:58 082 4 gusting 8 22.8
2019-Mar-20 19:53 120 2 gusting 7 22.8
2019-Mar-20 19:48 139 2 gusting 7 22.8
2019-Mar-20 19:43 088 0 gusting 8 22.8
2019-Mar-20 19:38 080 4 gusting 9 22.8
2019-Mar-20 19:33 094 1 gusting 9 22.8
2019-Mar-20 19:28 118 6 gusting 8 22.8
2019-Mar-20 19:23 064 1 gusting 7 22.8
2019-Mar-20 19:18 105 1 gusting 6 22.8
2019-Mar-20 19:13 087 1 gusting 9 22.8
2019-Mar-20 19:08 038 2 gusting 6 22.8
2019-Mar-20 19:03 100 2 gusting 10 22.8
2019-Mar-20 18:58 064 3 gusting 15 22.8
2019-Mar-20 18:53 075 4 gusting 8 22.8
2019-Mar-20 18:48 114 2 gusting 8 22.8
2019-Mar-20 18:43 128 3 gusting 7 22.8
2019-Mar-20 18:38 064 2 gusting 9 22.8
2019-Mar-20 18:33 065 4 gusting 9 22.8
2019-Mar-20 18:28 077 4 gusting 9 22.8
2019-Mar-20 18:23 100 5 gusting 8 22.8
2019-Mar-20 18:18 098 3 gusting 9 23.3
2019-Mar-20 18:13 065 3 gusting 9 23.3
2019-Mar-20 18:08 106 5 gusting 8 22.8
2019-Mar-20 18:03 091 5 gusting 9 22.8
2019-Mar-20 17:58 077 3 gusting 9 23.3
2019-Mar-20 17:53 084 5 gusting 11 23.3
2019-Mar-20 17:48 150 4 gusting 12 22.8
2019-Mar-20 17:43 044 4 gusting 12 22.8
2019-Mar-20 17:38 101 0 gusting 9 22.8
2019-Mar-20 17:33 075 4 gusting 9 22.8
2019-Mar-20 17:28 069 4 gusting 7 22.2
2019-Mar-20 17:23 098 3 gusting 7 22.8
2019-Mar-20 17:18 082 4 gusting 8 22.2
2019-Mar-20 17:13 051 4 gusting 8 22.2
2019-Mar-20 17:08 115 4 gusting 10 22.2
2019-Mar-20 17:03 087 4 gusting 12 22.2
2019-Mar-20 16:58 032 2 gusting 10 22.2
2019-Mar-20 16:53 074 3 gusting 12 22.2
2019-Mar-20 16:48 331 4 gusting 13 22.2
2019-Mar-20 16:43 096 3 gusting 9 22.2
2019-Mar-20 16:38 071 2 gusting 9 21.7
2019-Mar-20 16:33 049 2 gusting 9 21.7
2019-Mar-20 16:28 090 4 gusting 9 21.7
2019-Mar-20 16:23 080 2 gusting 11 21.7
2019-Mar-20 16:18 113 5 gusting 11 21.7
2019-Mar-20 16:13 111 3 gusting 11 21.7
2019-Mar-20 16:08 077 5 gusting 11 21.1
2019-Mar-20 16:03 088 4 gusting 12 21.1
2019-Mar-20 15:58 082 4 gusting 12 20.6
2019-Mar-20 15:53 101 3 gusting 9 20.6
2019-Mar-20 15:48 100 2 gusting 9 20.6
2019-Mar-20 15:43 222 3 gusting 12 20.6
2019-Mar-20 15:38 129 3 gusting 12 20.0
2019-Mar-20 15:33 094 3 gusting 7 20.0
2019-Mar-20 15:28 180 4 gusting 7 20.0
2019-Mar-20 15:23 151 4 gusting 8 20.0
2019-Mar-20 15:18 030 2 gusting 11 19.4
2019-Mar-20 15:13 041 2 gusting 10 19.4
2019-Mar-20 15:08 077 3 gusting 10 19.4
2019-Mar-20 15:03 079 4 gusting 8 19.4
2019-Mar-20 14:58 004 3 gusting 10 18.9
2019-Mar-20 14:53 065 5 gusting 10 19.4
2019-Mar-20 14:48 358 3 gusting 8 19.4
2019-Mar-20 14:43 055 3 gusting 8 19.4
2019-Mar-20 14:38 126 4 gusting 9 19.4
2019-Mar-20 14:33 181 4 gusting 15 18.9
2019-Mar-20 14:28 082 5 gusting 11 18.9
2019-Mar-20 14:23 046 3 gusting 9 18.9
2019-Mar-20 14:18 077 1 gusting 10 18.3
2019-Mar-20 14:13 114 3 gusting 10 17.8
2019-Mar-20 14:08 073 3 gusting 9 17.8
2019-Mar-20 14:03 329 3 gusting 11 17.2
2019-Mar-20 13:58 058 4 gusting 12 17.2
2019-Mar-20 13:53 072 5 gusting 12 17.2
2019-Mar-20 13:48 064 1 gusting 12 16.7
2019-Mar-20 13:43 073 3 gusting 9 16.7
2019-Mar-20 13:38 076 3 gusting 8 16.7
2019-Mar-20 13:33 116 4 gusting 8 16.7
2019-Mar-20 13:28 113 2 gusting 6 16.7
2019-Mar-20 13:23 111 1 gusting 8 16.7
2019-Mar-20 13:18 034 4 gusting 8 16.1
2019-Mar-20 13:13 081 4 gusting 8 16.7
2019-Mar-20 13:08 127 4 gusting 8 16.1
2019-Mar-20 13:03 034 3 gusting 13 16.1
2019-Mar-20 12:58 041 3 gusting 7 16.1
2019-Mar-20 12:53 071 1 gusting 6 16.1
2019-Mar-20 12:48 095 2 gusting 6 15.6
2019-Mar-20 12:43 074 2 gusting 7 15.6
2019-Mar-20 12:38 084 1 gusting 11 15.6
2019-Mar-20 12:33 075 2 gusting 11 15.6
2019-Mar-20 12:28 072 2 gusting 8 15.6
2019-Mar-20 12:23 111 3 gusting 9 15.6
2019-Mar-20 12:18 065 2 gusting 10 15.0
2019-Mar-20 12:13 079 3 gusting 12 15.0
2019-Mar-20 12:08 010 2 gusting 10 15.0
2019-Mar-20 12:03 090 3 gusting 10 15.0
2019-Mar-20 11:58 051 2 gusting 6 15.0
2019-Mar-20 11:53 139 1 gusting 10 15.0
2019-Mar-20 11:48 086 2 gusting 10 15.0
2019-Mar-20 11:43 051 3 gusting 8 15.0
2019-Mar-20 11:38 129 2 gusting 8 15.0
2019-Mar-20 11:28 016 0 gusting 6 15.0
2019-Mar-20 11:23 113 2 gusting 7 15.0
2019-Mar-20 11:18 047 2 gusting 7 15.0
2019-Mar-20 11:13 056 2 gusting 7 15.0
2019-Mar-20 11:08 046 3 gusting 7 15.0
2019-Mar-20 11:03 065 3 gusting 6 14.4
2019-Mar-20 10:58 074 2 gusting 7 14.4
2019-Mar-20 10:53 114 3 gusting 8 14.4
2019-Mar-20 10:48 061 2 gusting 8 14.4
2019-Mar-20 10:43 151 1 gusting 7 14.4
2019-Mar-20 10:38 276 1 gusting 8 14.4
2019-Mar-20 10:33 072 4 gusting 10 14.4
2019-Mar-20 10:28 226 3 gusting 10 14.4
2019-Mar-20 10:23 123 2 gusting 11 14.4
2019-Mar-20 10:18 077 4 gusting 11 14.4
2019-Mar-20 10:13 065 4 gusting 9 14.4
2019-Mar-20 10:08 072 2 gusting 9 14.4
2019-Mar-20 10:03 285 4 gusting 7 14.4
2019-Mar-20 09:58 068 1 gusting 7 14.4
2019-Mar-20 09:53 062 1 gusting 8 14.4
2019-Mar-20 09:48 134 1 gusting 8 14.4
2019-Mar-20 09:43 085 1 gusting 10 14.4
2019-Mar-20 09:38 267 4 gusting 10 14.4
2019-Mar-20 09:33 327 2 gusting 10 14.4
2019-Mar-20 09:28 098 3 gusting 8 14.4
2019-Mar-20 09:23 058 3 gusting 8 14.4
2019-Mar-20 09:18 058 2 gusting 10 14.4
2019-Mar-20 09:13 060 1 gusting 10 14.4
2019-Mar-20 09:08 030 1 gusting 7 14.4
2019-Mar-20 09:03 088 3 gusting 8 14.4
2019-Mar-20 08:58 335 3 gusting 13 14.4
2019-Mar-20 08:53 096 6 gusting 13 14.4
2019-Mar-20 08:48 063 4 gusting 10 14.4
2019-Mar-20 08:43 115 5 gusting 10 14.4
2019-Mar-20 08:38 089 3 gusting 11 14.4
2019-Mar-20 08:33 109 5 gusting 11 14.4
2019-Mar-20 08:28 057 2 gusting 11 13.9
2019-Mar-20 08:23 099 3 gusting 11 14.4
2019-Mar-20 08:18 064 3 gusting 11 14.4
2019-Mar-20 08:13 056 5 gusting 11 14.4
2019-Mar-20 08:08 020 6 gusting 16 14.4
2019-Mar-20 08:03 329 6 gusting 16 14.4
2019-Mar-20 07:58 104 2 gusting 10 14.4
2019-Mar-20 07:53 070 2 gusting 9 14.4
2019-Mar-20 07:48 359 3 gusting 8 14.4
2019-Mar-20 07:43 079 4 gusting 8 14.4
2019-Mar-20 07:38 042 4 gusting 8 14.4
2019-Mar-20 07:33 285 3 gusting 13 14.4
2019-Mar-20 07:28 103 4 gusting 13 14.4
2019-Mar-20 07:23 112 3 gusting 12 14.4
2019-Mar-20 07:18 075 3 gusting 12 14.4
2019-Mar-20 07:13 115 3 gusting 9 14.4
2019-Mar-20 07:08 090 1 gusting 6 14.4
2019-Mar-20 07:03 070 2 gusting 9 14.4
2019-Mar-20 06:58 065 2 gusting 7 14.4
2019-Mar-20 06:53 072 2 gusting 11 14.4
2019-Mar-20 06:48 302 4 gusting 11 14.4
2019-Mar-20 06:43 086 3 gusting 9 14.4
2019-Mar-20 06:38 139 1 gusting 9 15.0
2019-Mar-20 06:33 316 4 gusting 9 15.0
2019-Mar-20 06:28 047 1 gusting 6 15.0
2019-Mar-20 06:23 098 2 gusting 9 15.0
2019-Mar-20 06:18 231 1 gusting 9 15.0
2019-Mar-20 06:13 075 4 gusting 12 15.0
2019-Mar-20 06:08 103 6 gusting 12 15.0
2019-Mar-20 06:03 058 1 gusting 7 15.0
2019-Mar-20 05:58 243 2 gusting 13 15.0
2019-Mar-20 05:53 087 4 gusting 13 15.0
2019-Mar-20 05:48 033 4 gusting 13 15.0
2019-Mar-20 05:43 100 2 gusting 13 15.6
2019-Mar-20 05:38 144 5 gusting 16 15.6
2019-Mar-20 05:33 098 3 gusting 16 15.6
2019-Mar-20 05:28 108 3 gusting 12 15.6
2019-Mar-20 05:23 065 3 gusting 8 15.6
2019-Mar-20 05:18 108 1 gusting 8 15.6
2019-Mar-20 05:13 040 3 gusting 9 15.6
2019-Mar-20 05:08 083 4 gusting 9 15.6
2019-Mar-20 05:03 041 3 gusting 9 15.6